This is the latest recevied weather packets stored in our database for station/object KE5QKR. If no packets are shown the sender has not sent any weather packets the latest 10 day(s).
| Time | Temp. | Humidity | Pressure | Rain* | Wind** | Luminosity | Snow |
|---|---|---|---|---|---|---|---|
| 1777586875 | 22.78° C | 96% | 1008.9 hPa | 0 mm | - | 23 W/m² | - |
| 1777586571 | 22.78° C | 95% | 1008.7 hPa | 0 mm | - | 21 W/m² | - |
| 1777586267 | 22.78° C | 94% | 1008.8 hPa | 0 mm | - | 23 W/m² | - |
| 1777585964 | 22.78° C | 94% | 1009 hPa | 0 mm | - | 23 W/m² | - |
| 1777585659 | 22.78° C | 94% | 1008.9 hPa | 0 mm | - | 21 W/m² | - |
| 1777585355 | 23.33° C | 95% | 1008.9 hPa | 0 mm | - | 31 W/m² | - |
| 1777585050 | 23.33° C | 95% | 1008.9 hPa | 0 mm | - | 40 W/m² | - |
| 1777584746 | 23.33° C | 94% | 1008.9 hPa | 0 mm | - | 39 W/m² | - |
| 1777584444 | 23.89° C | 92% | 1009 hPa | 0 mm | - | 44 W/m² | - |
| 1777584140 | 23.89° C | 91% | 1008.9 hPa | 0 mm | - | 63 W/m² | - |
| 1777583839 | 23.89° C | 90% | 1008.5 hPa | 0 mm | - | 87 W/m² | - |
| 1777583536 | 23.89° C | 90% | 1008.5 hPa | 0 mm | - | 110 W/m² | - |
| 1777583234 | 23.89° C | 90% | 1008.7 hPa | 0 mm | - | 126 W/m² | - |
| 1777582929 | 24.44° C | 89% | 1008.8 hPa | 0 mm | - | 129 W/m² | - |
| 1777582628 | 24.44° C | 90% | 1009.1 hPa | 0 mm | - | 144 W/m² | - |
| 1777582322 | 25° C | 90% | 1008.6 hPa | 0 mm | - | 187 W/m² | - |
| 1777582028 | 24.44° C | 88% | 1008.7 hPa | 0 mm | - | 244 W/m² | - |
| 1777581715 | 23.89° C | 88% | 1008.8 hPa | 0 mm | - | 287 W/m² | - |
| 1777581414 | 24.44° C | 89% | 1009.1 hPa | 0 mm | - | 215 W/m² | - |
| 1777581114 | 23.89° C | 89% | 1009.1 hPa | 0 mm | - | 255 W/m² | - |
| 1777580809 | 23.89° C | 89% | 1009 hPa | 1.78 mm | - | 333 W/m² | - |
| 1777580505 | 23.89° C | 93% | 1008.9 hPa | 1.78 mm | - | 350 W/m² | - |
| 1777580200 | 23.89° C | 94% | 1009 hPa | 0 mm | - | 283 W/m² | - |
| 1777579897 | 23.89° C | 95% | 1009.4 hPa | 0 mm | - | 297 W/m² | - |
| 1777579592 | 23.33° C | 94% | 1009.1 hPa | 0 mm | - | 122 W/m² | - |
* Rain latest hour (hover to see other rain measurements)
** Current wind speed in m/s (hover to see current wind gust speed)